Theta_e
316 315 315 315 314 314 315 315 314 314 314 314 314 314 314 314 314 314 314 313 313 314 314 314 314 314 314 313 313 312 312 312 312 312 313 312 312 312 311 311 312 311
316 315 315 315 314 314 314 314 314 313 314 314 314 314 314 314 313 314 313 313 313 313 313 313 313 313 313 312 312 312 312 312 312 312 312 311 311 311 311 311 311 310
316 315 315 315 314 313 314 314 313 313 313 313 313 314 314 313 313 313 313 312 312 312 312 312 312 312 312 312 312 311 311 311 311 311 311 311 311 311 311 310 310 310
316 316 315 314 314 313 313 313 313 313 313 313 313 313 313 313 313 313 312 311 311 311 312 311 311 312 312 311 311 311 311 311 311 311 311 311 310 311 310 310 310 310
317 316 315 314 314 314 313 314 313 313 313 312 312 312 313 313 312 312 312 311 311 311 311 311 311 311 311 311 311 311 311 311 311 311 311 311 311 311 311 310 310 310
317 316 316 315 314 314 314 314 313 313 313 312 312 312 312 312 312 312 311 311 311 312 311 311 311 311 311 311 311 311 311 311 311 311 311 311 311 311 311 310 311 310
318 317 316 316 315 314 314 314 313 313 313 313 312 312 312 312 312 312 311 311 311 311 311 311 312 312 312 312 312 312 312 312 312 312 312 312 312 311 311 311 311 311
319 318 317 316 315 315 314 314 314 313 313 313 313 312 312 312 312 312 312 312 312 312 312 312 312 312 312 312 312 312 312 312 312 313 313 313 312 312 312 312 311 311
319 318 317 317 316 315 315 314 314 313 312 313 313 312 312 312 312 312 312 313 313 313 312 312 312 312 312 312 312 313 313 313 313 313 313 312 312 312 312 312 312 312
319 319 317 317 316 315 315 314 314 313 312 312 312 312 312 312 312 312 313 313 313 313 313 313 313 313 313 313 313 313 314 313 312 311 310 309 309 310 310 311 311 311
319 318 317 317 316 315 314 314 313 313 313 312 312 313 313 313 313 313 313 313 313 314 314 314 314 313 313 313 313 313 313 312 310 308 307 306 306 306 306 307 308 308
318 317 317 316 315 315 314 313 313 313 313 313 313 313 313 313 313 314 314 314 314 314 314 314 313 313 313 313 312 312 311 310 308 307 306 305 304 303 303 304 304 305
318 317 316 315 315 314 313 313 313 313 313 313 313 313 314 314 315 315 314 314 314 314 314 313 312 312 313 311 309 309 308 307 306 305 303 302 302 302 302 303 303 304
317 316 316 315 314 314 313 313 313 313 313 314 314 315 315 314 315 314 314 314 314 313 313 312 311 312 311 309 307 306 305 305 304 303 302 301 300 300 301 302 303 303
316 315 315 314 314 313 313 314 314 314 315 315 315 315 315 315 315 314 314 313 313 312 312 311 311 310 309 306 305 305 304 304 304 303 303 301 300 300 302 303 304 305
315 314 314 314 314 313 314 314 314 315 315 315 315 315 314 315 314 313 312 311 311 311 311 310 310 308 306 305 305 304 304 303 303 302 302 301 300 300 301 303 304 305
314 314 313 314 314 314 314 315 314 315 315 315 314 314 314 314 312 311 310 310 310 311 310 309 308 307 305 304 304 304 302 301 301 301 301 300 300 300 300 300 300 299
314 314 314 314 315 315 315 315 315 314 314 314 313 313 312 312 310 310 309 309 309 309 308 307 306 305 303 303 303 302 300 299 299 299 298 297 298 300 300 299 298 296
314 314 315 315 315 315 315 314 314 313 312 312 312 312 311 310 309 308 308 308 307 306 306 306 304 303 302 301 300 298 297 297 298 297 296 295 296 298 298 298 296 295
315 315 315 315 315 314 314 314 313 312 311 311 311 310 309 308 307 307 307 306 306 305 306 304 302 301 300 298 297 296 296 296 296 295 294 294 294 295 295 295 295 294
315 315 315 314 313 313 312 312 311 310 310 310 309 307 307 306 306 306 305 305 304 304 304 302 301 299 298 296 296 296 295 295 294 294 293 293 293 293 294 294 294 294
315 314 313 312 311 311 311 310 309 309 309 307 306 306 306 306 305 305 304 304 303 302 302 301 300 298 297 296 295 295 295 294 293 293 293 293 293 293 294 294 294 294
315 313 312 311 310 310 309 307 307 308 307 306 305 305 305 304 304 303 302 301 301 300 300 300 299 297 296 295 295 294 293 293 292 292 293 293 293 293 293 293 293 293
313 312 311 310 310 309 307 306 307 307 305 305 305 304 303 303 302 300 299 299 299 299 298 298 298 297 296 295 294 293 292 291 291 292 292 292 291 291 291 291 291 292
312 311 311 310 309 307 306 306 306 305 304 304 303 302 301 300 299 298 297 298 297 297 296 297 297 296 295 294 293 292 290 289 289 290 290 289 289 289 290 290 291 291
311 310 310 309 307 306 306 306 306 304 302 301 301 299 298 297 296 297 297 297 296 295 296 296 296 295 294 293 292 291 289 288 289 289 289 289 289 289 290 290 290 290
Wind_Speed
8 10 9 9 10 10 8 8 9 9 9 9 9 11 10 10 11 11 11 12 12 11 11 10 10 11 12 11 11 13 13 14 15 14 14 15 16 16 16 15 14 15
6 8 7 7 8 8 7 6 7 8 8 9 10 11 10 10 12 11 9 11 11 10 9 8 9 8 9 10 10 10 12 13 14 13 13 14 15 16 16 14 13 14
4 6 7 7 7 8 10 8 6 7 7 8 10 10 10 9 12 12 9 9 11 11 9 8 8 7 7 9 9 10 11 12 13 14 14 15 17 17 15 14 14 13
4 5 7 9 9 10 12 11 8 8 8 9 10 10 10 9 12 13 10 10 13 14 13 12 12 12 12 12 11 11 12 12 14 15 16 17 18 16 15 15 17 18
3 4 6 8 9 10 12 13 11 11 10 10 10 10 11 11 12 13 12 13 15 15 15 16 16 16 16 17 16 13 13 14 17 17 18 18 17 16 16 16 19 21
3 4 5 5 6 8 10 11 11 12 11 10 11 11 10 11 12 13 13 14 15 14 14 15 17 18 19 19 17 15 16 17 18 18 18 18 18 18 18 19 19 21
2 3 4 4 4 6 7 8 10 12 12 12 13 12 10 11 13 13 14 15 16 16 16 16 18 19 19 19 19 18 19 20 19 19 20 20 19 19 20 21 21 21
3 2 2 4 6 5 5 7 10 11 13 15 14 13 12 13 14 15 16 18 18 19 20 19 19 20 21 22 23 23 22 22 21 20 20 21 20 20 22 24 24 24
3 3 2 5 7 6 5 7 9 11 13 16 15 14 15 15 15 17 19 20 20 21 22 22 22 22 23 24 24 23 23 22 20 19 20 22 23 23 25 26 27 26
3 3 3 4 6 6 6 7 9 11 12 14 16 16 16 16 17 18 19 20 21 22 23 24 25 25 25 25 24 23 21 20 20 20 22 24 25 26 26 27 28 28
3 4 3 4 6 7 6 6 9 11 12 14 16 15 16 17 18 19 19 19 21 23 25 26 26 27 26 25 22 21 20 20 21 23 24 25 27 28 29 29 29 30
3 4 4 4 6 7 7 8 10 11 12 14 15 15 16 17 18 19 20 22 24 25 25 25 25 24 22 20 19 19 19 19 21 23 25 27 29 30 31 31 31 32
3 4 5 5 5 6 8 9 10 11 13 14 15 15 16 18 21 23 24 25 25 24 23 23 23 21 19 18 19 19 20 21 22 25 27 29 31 32 32 32 32 33
4 5 6 5 4 5 8 9 9 10 12 15 16 16 18 22 23 24 24 23 22 22 22 23 22 18 16 18 20 21 23 23 23 26 29 31 34 34 33 32 32 32
5 6 6 4 4 5 8 8 9 12 15 17 18 19 21 21 20 21 21 21 22 21 21 22 18 14 15 20 21 24 25 24 25 29 30 33 35 34 33 32 31 32
8 8 5 6 6 7 9 12 15 18 18 18 17 19 19 18 19 20 20 21 22 20 20 20 15 13 18 22 23 26 27 27 29 30 29 31 33 33 32 31 30 30
8 5 7 11 13 12 12 15 17 18 17 16 16 18 18 17 19 20 20 21 20 19 21 18 14 16 21 24 25 27 28 30 30 27 27 30 30 31 31 30 31 33
9 10 11 13 15 15 15 16 16 15 16 17 17 17 17 18 19 20 20 20 18 19 20 15 15 19 23 24 26 27 29 31 29 27 29 31 30 30 29 29 32 35
12 12 13 14 14 15 15 15 15 16 17 18 17 16 17 18 19 19 20 19 19 20 19 15 16 21 23 25 27 29 33 32 28 30 32 30 30 30 29 30 32 34
12 12 13 13 13 14 14 14 15 17 17 16 15 16 18 19 19 18 18 19 20 21 17 14 17 21 23 27 30 33 36 34 31 33 32 29 29 30 30 31 32 33
11 12 13 13 14 14 13 14 16 16 15 15 16 18 18 18 17 18 19 19 20 20 17 14 17 21 25 30 33 35 37 35 33 33 31 29 31 31 31 31 32 33
11 12 14 14 13 13 13 14 15 14 14 16 17 17 16 16 17 18 19 20 20 20 19 15 15 21 27 31 34 35 36 36 34 33 32 31 31 30 30 31 32 32
12 12 13 13 12 12 14 15 14 13 15 17 17 16 16 17 18 18 19 20 19 21 21 16 15 21 28 30 33 35 37 40 37 32 30 29 29 30 30 31 31 31
11 12 13 12 12 13 14 14 12 13 16 16 15 16 17 18 18 18 19 20 19 21 22 18 16 21 26 30 34 37 41 41 36 28 27 27 29 31 31 30 30 31
10 11 11 10 11 12 12 11 12 13 15 15 15 16 17 18 19 19 18 19 20 21 21 20 19 21 26 31 34 37 40 38 31 27 28 29 31 32 32 31 31 32
10 11 9 9 10 11 10 10 11 13 15 15 16 17 18 19 18 17 17 19 20 20 19 20 21 22 26 30 32 34 37 35 29 27 30 33 33 32 33 34 33 34
Wind_Direction
38 27 22 36 37 19 8 6 2 6 7 4 5 359 355 357 355 352 354 355 354 356 356 353 354 354 354 356 353 355 355 347 342 339 336 340 336 330 327 324 327 334
45 25 15 31 41 23 8 11 8 3 2 4 2 353 349 355 351 343 345 352 349 343 340 341 343 345 349 346 338 344 350 340 334 333 330 330 327 321 319 316 319 322
49 21 10 13 33 31 8 360 10 8 6 8 358 344 343 352 347 338 337 347 340 328 322 325 327 325 330 330 323 328 336 330 325 324 321 321 316 310 313 316 313 309
46 22 18 7 12 27 2 344 360 18 15 7 354 340 337 342 341 333 328 339 339 330 328 330 330 328 326 325 317 315 321 320 316 315 310 308 306 303 311 319 317 312
33 23 30 9 2 15 358 344 354 5 3 357 347 338 333 332 332 329 329 336 335 331 333 333 331 328 323 318 311 306 310 309 306 303 295 295 301 306 310 313 313 309
41 36 22 3 355 359 348 342 349 349 347 346 335 324 323 328 327 324 327 327 322 322 325 322 319 315 312 310 306 303 306 305 303 299 292 296 304 308 308 308 306 302
10 27 2 343 340 344 337 339 345 344 343 337 323 313 313 320 320 319 321 320 319 321 320 315 314 312 315 319 315 310 310 308 306 301 298 302 304 305 305 304 300 295
305 307 340 333 325 328 337 341 344 346 340 324 313 317 322 320 322 326 328 327 326 326 322 319 317 316 318 319 314 310 310 309 309 312 316 318 317 314 312 308 304 299
281 295 347 335 322 325 337 343 343 341 332 320 319 327 327 324 330 334 332 330 327 323 321 320 319 320 321 321 317 316 318 322 329 338 339 335 330 324 318 312 309 305
270 284 312 313 308 312 320 328 331 327 324 324 326 327 327 330 333 329 324 322 321 320 323 326 327 327 328 327 327 329 336 345 351 350 345 339 334 327 321 316 312 309
270 277 283 289 296 303 313 323 327 327 330 329 325 324 325 325 321 316 315 321 327 329 329 329 327 327 328 329 332 339 348 352 348 344 341 336 331 325 319 315 311 308
300 309 322 323 317 325 335 336 331 328 327 322 317 317 318 319 323 328 332 336 335 331 328 326 327 332 338 344 347 348 348 348 345 342 339 334 329 323 317 312 308 305
293 304 315 317 323 332 328 323 319 317 316 316 316 321 330 337 342 341 339 336 332 329 329 333 340 347 351 353 353 351 349 350 349 345 341 337 332 324 317 312 308 305
277 280 281 278 284 303 302 298 304 317 329 333 336 343 347 345 342 338 335 333 331 334 337 340 345 352 353 352 354 354 353 353 350 346 343 338 332 324 317 313 310 308
306 296 287 279 280 301 312 321 337 348 351 347 348 350 345 340 338 337 336 335 336 338 338 341 347 355 356 355 356 355 356 354 350 346 341 335 330 325 320 316 314 311
310 309 339 8 359 349 354 3 0 355 351 350 351 348 342 341 341 341 340 338 339 338 338 345 360 9 2 359 357 356 356 354 348 344 339 334 330 325 322 321 320 319
318 339 22 19 7 0 5 5 355 349 353 357 354 347 343 345 345 343 341 339 338 339 341 353 16 14 2 359 358 357 355 352 349 344 340 336 330 325 323 325 327 328
18 22 18 16 12 4 3 2 356 359 4 360 351 347 348 348 346 342 339 339 342 344 347 4 19 8 1 1 0 357 354 354 353 348 343 337 329 324 323 326 327 325
29 21 15 16 15 6 2 4 7 9 4 353 349 351 351 348 343 340 341 346 350 351 356 13 15 6 4 4 1 357 356 358 357 350 344 336 330 327 325 324 323 320
21 17 19 19 15 9 5 9 12 6 356 351 355 356 350 345 341 343 349 354 355 356 1 14 14 9 7 4 1 358 358 358 354 347 341 334 330 327 322 320 318 316
20 27 31 26 16 9 9 13 9 359 354 359 3 355 346 343 347 354 357 357 358 359 6 18 19 13 9 5 1 357 355 354 349 343 337 330 326 322 317 315 314 312
37 42 38 25 10 9 17 14 2 357 2 7 1 348 345 352 358 360 359 358 360 3 8 19 20 13 10 5 360 356 353 349 344 338 332 327 322 320 318 316 315 313
48 43 33 19 11 18 20 7 358 5 11 7 355 348 355 4 3 2 1 1 3 8 12 17 19 15 10 5 1 358 352 347 343 339 334 331 327 324 322 320 318 316
49 39 30 18 16 22 14 0 6 17 12 3 356 357 5 8 6 5 4 3 7 12 13 15 16 12 8 5 3 356 350 349 348 343 339 336 331 327 324 322 320 318
48 39 29 20 20 19 9 5 18 21 11 5 6 8 11 11 9 7 4 7 13 11 10 12 11 6 6 4 357 350 351 355 354 348 343 338 332 328 326 324 323 322
48 37 28 28 24 16 10 16 26 23 15 15 19 19 15 12 10 8 8 12 13 9 8 11 10 8 6 358 351 352 359 1 357 351 346 339 334 331 328 326 326 326